This is the latest recevied weather packets stored in our database for station/object KI4NG. If no packets are shown the sender has not sent any weather packets the latest 10 day(s).
| Time | Temp. | Humidity | Pressure | Rain* | Wind** | Luminosity | Snow |
|---|---|---|---|---|---|---|---|
| 1788301858 | 32.22° C | 59% | 1021.1 hPa | 0 mm | - | 159 W/m² | - |
| 1788301555 | 31.67° C | 58% | 1020.9 hPa | 0 mm | - | 177 W/m² | - |
| 1788301250 | 32.22° C | 60% | 1020.8 hPa | 0 mm | - | 194 W/m² | - |
| 1788300947 | 32.78° C | 57% | 1020.9 hPa | 0 mm | - | 189 W/m² | - |
| 1788300642 | 33.33° C | 57% | 1020.8 hPa | 0 mm | - | 245 W/m² | - |
| 1788300341 | 32.78° C | 60% | 1020.8 hPa | 0 mm | - | 253 W/m² | - |
| 1788300040 | 32.78° C | 60% | 1020.9 hPa | 0 mm | - | 231 W/m² | - |
| 1788299738 | 32.78° C | 58% | 1021.1 hPa | 0 mm | - | 299 W/m² | - |
| 1788299433 | 32.78° C | 61% | 1020.9 hPa | 0 mm | - | 279 W/m² | - |
| 1788299132 | 31.67° C | 64% | 1021.1 hPa | 0 mm | - | 320 W/m² | - |
| 1788298832 | 31.11° C | 66% | 1020.7 hPa | 0 mm | - | 249 W/m² | - |
| 1788298532 | 31.67° C | 60% | 1021.1 hPa | 0 mm | - | 103 W/m² | - |
| 1788298226 | 31.67° C | 61% | 1020.8 hPa | 0 mm | - | 370 W/m² | - |
| 1788297926 | 32.78° C | 60% | 1020.8 hPa | 0 mm | - | 111 W/m² | - |
| 1788297623 | 33.89° C | 56% | 1021 hPa | 0 mm | - | 333 W/m² | - |
| 1788297318 | 33.33° C | 56% | 1021 hPa | 0 mm | - | 420 W/m² | - |
| 1788297015 | 33.33° C | 58% | 1020.9 hPa | 0 mm | - | 407 W/m² | - |
| 1788296709 | 32.22° C | 59% | 1020.9 hPa | 0 mm | - | 460 W/m² | - |
| 1788296405 | 32.22° C | 61% | 1021.1 hPa | 0 mm | - | 361 W/m² | - |
| 1788296100 | 31.11° C | 68% | 1021 hPa | 0 mm | - | 126 W/m² | - |
| 1788295794 | 30.56° C | 67% | 1021.1 hPa | 0 mm | - | 180 W/m² | - |
| 1788295492 | 31.11° C | 66% | 1021.2 hPa | 0 mm | - | 82 W/m² | - |
| 1788295190 | 31.67° C | 63% | 1021.2 hPa | 0 mm | - | 99 W/m² | - |
| 1788294886 | 32.22° C | 62% | 1021.4 hPa | 0 mm | - | 164 W/m² | - |
| 1788294581 | 31.67° C | 63% | 1021.2 hPa | 0 mm | - | 505 W/m² | - |
* Rain latest hour (hover to see other rain measurements)
** Current wind speed in m/s (hover to see current wind gust speed)